Starlink 37114

operational
NORAD ID: 68562 Int'l Des: 2026-070 Owner: SPXS Country: US Constellation: starlink
LEOCIRCULAR

About Starlink 37114

Description loading...

Live Position

Loading 3D Globe...

Upcoming Passes

Altitude History

Altitude vs Time

uPlot chart will show altitude changes over time

Two-Line Element Set

1 68562C 26070V 26093.82131944 .00459750 00000+0 56330-3 0 938
2 68562 53.1621 260.0070 0007882 283.3074 195.3187 16.06954031 14
Epoch: Apr 3, 2026 • Age: 29 hours

Current Status

Altitude 264.0 km
Velocity 7.75 km/s
Sub-Earth Point 45.10°N, 127.21°E
Launch Date Apr 2, 2026
Age 1 days
Type internet

Technical Details

Classification Payload
Mass 575.00 kg
Dry Mass 530.00 kg
Total Mass 575.00 kg
Length 0.30 m
Diameter 4.10 m
Span 29.00 m
Shape Box + pan
Manufacturer SPXS
Bus Type Starlink V2MO
Phase Status In Orbit
Owner/State SPXS/US

Large Constellations

Loading constellations...